Latest Coastal Weather Observations for Yeppoon

IDQ60701

Issued at 3:15 pm EST Saturday 26 July 2014 (issued every 10 minutes, with the page automatically refreshed every 10 minutes)

About coastal observations | Map of coastal stations | Coastal observations for QLD | Marine services | Other Formats
Station Details ID: 033294 Name: YEPPOON THE ESPLANADE Lat: -23.14 Lon: 150.75 Height: 5.5 m
Data from the previous 72 hours. | See also: Recent months at Yeppoon
Date/Time
EST
Temp

°C
Wind Pressure Rain
since 9am
mm
Weather Cloud Vis
km
Sea
Height
m
Swell
Dir
 
Speed
knots
Gust
knots
hPa Trend Height
m
Period
s
Dir
26/03:00pm 20.5 ESE 4 6 1023.3 - 0.0 - - - - - - -
26/02:30pm 20.7 SE 5 6 1023.3 - 0.0 - - - - - - -
26/02:00pm 21.0 SSE 5 7 1023.5 - 0.0 - - - - - - -
26/01:30pm 20.8 SSE 4 6 1023.7 - 0.0 - - - - - - -
26/01:00pm 20.8 SSE 5 6 1024.1 - 0.0 - - - - - - -
26/12:30pm 20.3 SSE 5 7 1024.3 - 0.0 - - - - - - -
26/12:00pm 20.1 SSE 7 9 1024.6 - 0.0 - - - - - - -
26/11:30am 19.7 SSE 6 8 1025.2 - 0.0 - - - - - - -
26/11:00am 19.8 SE 6 9 1025.3 - 0.0 - - - - - - -
26/10:30am 19.7 SE 6 8 1025.6 - 0.0 - - - - - - -
26/10:00am 19.2 SE 4 6 1025.7 - 0.0 - - - - - - -
26/09:30am 18.5 SSW 3 4 1025.7 - 0.0 - - - - - - -
26/09:00am 17.8 WSW 3 5 1025.7 - 0.2 - - - - - - -
26/08:30am 17.3 CALM 0 3 1025.4 - 0.2 - - - - - - -
26/08:00am 17.0 SW 4 5 1025.4 - 0.2 - - - - - - -
26/07:30am 16.9 SW 4 5 1025.2 - 0.2 - - - - - - -
26/07:00am 16.6 SSW 5 7 1025.0 - 0.2 - - - - - - -
26/06:30am 16.2 SW 1 5 1024.8 - 0.2 - - - - - - -
26/06:00am 16.2 SW 4 6 1025.0 - 0.2 - - - - - - -
26/05:30am 15.8 SW 1 4 1024.4 - 0.2 - - - - - - -
26/05:00am 15.6 SW 3 5 1024.2 - 0.2 - - - - - - -
26/04:30am 15.8 W 3 4 1024.1 - 0.2 - - - - - - -
26/04:00am 15.9 W 4 5 1024.3 - 0.2 - - - - - - -
26/03:30am 16.0 W 4 5 1024.3 - 0.2 - - - - - - -
26/03:00am 16.3 W 3 5 1024.5 - 0.2 - - - - - - -
26/02:30am 16.3 W 4 5 1024.5 - 0.2 - - - - - - -
26/02:00am 16.6 WSW 4 5 1024.6 - 0.2 - - - - - - -
26/01:30am 16.3 WSW 4 5 1025.1 - 0.2 - - - - - - -
26/01:00am 16.6 SSW 3 4 1025.2 - 0.2 - - - - - - -
26/12:30am 16.5 W 5 6 1025.5 - 0.2 - - - - - - -
26/12:00am 16.9 W 5 27 1025.5 - 0.0 - - - - - - -
 
Date/Time
EST
Temp

°C
Wind Pressure Rain
since 9am
mm
Weather Cloud Vis
km
Sea
Height
m
Swell
Dir
 
Speed
knots
Gust
knots
hPa Trend Height
m
Period
s
Dir
25/11:30pm 16.9 W 4 5 1025.6 - 0.0 - - - - - - -
25/11:00pm 17.2 SW 4 5 1025.7 - 0.0 - - - - - - -
25/10:30pm 17.2 SW 4 5 1025.9 - 0.0 - - - - - - -
25/10:00pm 17.6 SW 4 5 1025.9 - 0.0 - - - - - - -
25/09:30pm 18.2 SSE 2 4 1025.7 - 0.0 - - - - - - -
25/09:00pm 17.6 SSW 3 4 1025.7 - 0.0 - - - - - - -
25/08:30pm 17.3 SW 3 5 1025.6 - 0.0 - - - - - - -
25/08:00pm 17.3 SW 4 5 1025.4 - 0.0 - - - - - - -
25/07:30pm 17.6 S 3 3 1025.1 - 0.0 - - - - - - -
25/07:00pm 18.4 SSE 3 5 1024.8 - 0.0 - - - - - - -
25/06:30pm 18.8 SE 4 5 1024.2 - 0.0 - - - - - - -
25/06:00pm 19.2 SE 4 7 1023.7 - 0.0 - - - - - - -
25/05:30pm 19.7 ESE 6 9 1023.5 - 0.0 - - - - - - -
25/05:00pm 19.8 ESE 7 11 1023.4 - 0.0 - - - - - - -
25/04:30pm 20.4 ESE 8 12 1023.1 - 0.0 - - - - - - -
25/04:00pm 20.3 ESE 9 13 1022.9 - 0.0 - - - - - - -
25/03:30pm 20.3 ESE 10 14 1022.8 - 0.0 - - - - - - -
25/03:00pm 21.1 ESE 9 13 1022.7 - 0.0 - - - - - - -
25/02:30pm 21.4 ESE 9 13 1022.8 - 0.0 - - - - - - -
25/02:00pm 21.3 E 9 13 1023.2 - 0.0 - - - - - - -
25/01:30pm 21.5 E 9 13 1023.4 - 0.0 - - - - - - -
25/01:00pm 21.8 E 9 13 1023.7 - 0.0 - - - - - - -
25/12:30pm 21.4 E 8 12 1024.0 - 0.0 - - - - - - -
25/12:00pm 21.5 ESE 7 11 1024.5 - 0.0 - - - - - - -
25/11:30am 20.8 ESE 10 15 1025.0 - 0.0 - - - - - - -
25/11:00am 21.1 ESE 9 15 1025.3 - 0.0 - - - - - - -
25/10:30am 20.9 SE 8 11 1025.4 - 0.0 - - - - - - -
25/10:00am 20.7 ESE 7 12 1025.4 - 0.0 - - - - - - -
25/09:30am 19.9 SE 7 11 1025.4 - 0.0 - - - - - - -
25/09:00am 18.8 SSE 7 9 1025.5 - 0.2 - - - - - - -
25/08:30am 17.5 S 4 6 1025.3 - 0.2 - - - - - - -
25/08:00am 16.6 SSW 4 5 1024.9 - 0.2 - - - - - - -
25/07:30am 15.5 SW 5 7 1024.5 - 0.2 - - - - - - -
25/07:00am 15.0 SW 4 6 1024.0 - 0.2 - - - - - - -
25/06:30am 14.8 SW 5 7 1023.6 - 0.2 - - - - - - -
25/06:00am 15.0 SW 5 6 1023.5 - 0.2 - - - - - - -
25/05:30am 15.2 SW 5 7 1023.2 - 0.2 - - - - - - -
25/05:00am 15.2 SW 5 7 1022.7 - 0.2 - - - - - - -
25/04:30am 15.3 SW 5 7 1022.5 - 0.2 - - - - - - -
25/04:00am 15.3 SW 5 7 1022.3 - 0.2 - - - - - - -
25/03:30am 15.3 SW 4 6 1022.5 - 0.2 - - - - - - -
25/03:00am 15.1 SSW 5 7 1022.5 - 0.0 - - - - - - -
25/02:30am 15.3 SW 5 6 1022.6 - 0.0 - - - - - - -
25/02:00am 14.8 W 5 7 1022.7 - 0.0 - - - - - - -
25/01:30am 15.0 W 5 7 1022.8 - 0.0 - - - - - - -
25/01:00am 15.0 WSW 5 6 1022.8 - 0.0 - - - - - - -
25/12:30am 15.0 WSW 4 5 1022.8 - 0.0 - - - - - - -
25/12:00am 14.9 W 4 5 1022.8 - 0.0 - - - - - - -
 
Date/Time
EST
Temp

°C
Wind Pressure Rain
since 9am
mm
Weather Cloud Vis
km
Sea
Height
m
Swell
Dir
 
Speed
knots
Gust
knots
hPa Trend Height
m
Period
s
Dir
24/11:30pm 15.2 W 4 5 1022.6 - 0.0 - - - - - - -
24/11:00pm 15.9 W 4 5 1022.6 - 0.0 - - - - - - -
24/10:30pm 16.1 W 4 5 1022.6 - 0.0 - - - - - - -
24/10:00pm 16.6 SSW 3 3 1022.6 - 0.0 - - - - - - -
24/09:30pm 18.5 ESE 4 6 1022.6 - 0.0 - - - - - - -
24/09:00pm 18.6 ESE 5 7 1022.7 - 0.0 - - - - - - -
24/08:30pm 18.7 ESE 5 8 1022.6 - 0.0 - - - - - - -
24/08:00pm 18.7 E 6 9 1022.2 - 0.0 - - - - - - -
24/07:30pm 18.7 ESE 6 9 1022.0 - 0.0 - - - - - - -
24/07:00pm 18.7 E 5 7 1021.6 - 0.0 - - - - - - -
24/06:30pm 18.8 E 6 8 1021.2 - 0.0 - - - - - - -
24/06:00pm 18.9 E 6 8 1020.8 - 0.0 - - - - - - -
24/05:30pm 19.1 E 7 9 1020.5 - 0.0 - - - - - - -
24/05:00pm 19.4 E 9 12 1020.4 - 0.0 - - - - - - -
24/04:30pm 19.7 E 9 13 1020.1 - 0.0 - - - - - - -
24/04:00pm 19.9 E 10 13 1020.0 - 0.0 - - - - - - -
24/03:30pm 20.3 E 9 13 1019.9 - 0.0 - - - - - - -
24/03:00pm 20.7 E 9 11 1019.9 - 0.0 - - - - - - -
24/02:30pm 20.9 E 9 13 1019.7 - 0.0 - - - - - - -
24/02:00pm 21.2 E 9 13 1019.7 - 0.0 - - - - - - -
24/01:30pm 21.6 E 9 13 1019.8 - 0.0 - - - - - - -
24/01:00pm 21.1 ESE 11 15 1020.0 - 0.0 - - - - - - -
24/12:30pm 21.0 ESE 10 14 1020.4 - 0.0 - - - - - - -
24/12:00pm 20.6 ESE 9 14 1020.9 - 0.0 - - - - - - -
24/11:30am 20.7 SE 9 13 1021.2 - 0.0 - - - - - - -
24/11:00am 20.2 ESE 10 14 1021.3 - 0.0 - - - - - - -
24/10:30am 19.8 SE 8 13 1021.5 - 0.0 - - - - - - -
24/10:00am 19.2 SE 8 11 1021.5 - 0.0 - - - - - - -
24/09:30am 19.0 ESE 9 12 1021.4 - 0.0 - - - - - - -
24/09:00am 17.9 SE 7 11 1021.6 - 0.0 - - - - - - -
24/08:30am 16.9 SSE 4 9 1021.5 - 0.0 - - - - - - -
24/08:00am 15.6 SSW 4 6 1021.4 - 0.0 - - - - - - -
24/07:30am 14.3 SW 4 6 1021.1 - 0.0 - - - - - - -
24/07:00am 13.4 SW 5 6 1020.8 - 0.0 - - - - - - -
24/06:30am 13.5 SSW 6 8 1020.5 - 0.0 - - - - - - -
24/06:00am 13.4 SSW 5 7 1020.4 - 0.0 - - - - - - -
24/05:30am 13.6 SSW 5 7 1020.1 - 0.0 - - - - - - -
24/05:00am 13.6 SSW 5 8 1019.9 - 0.0 - - - - - - -
24/04:30am 13.5 SSW 4 7 1019.8 - 0.0 - - - - - - -
24/04:00am 13.7 SSW 4 6 1019.7 - 0.0 - - - - - - -
24/03:30am 13.8 SW 4 6 1019.8 - 0.0 - - - - - - -
24/03:00am 13.9 SW 4 5 1019.9 - 0.0 - - - - - - -
24/02:30am 13.9 SW 5 7 1019.9 - 0.0 - - - - - - -
24/02:00am 14.0 SW 5 6 1019.9 - 0.0 - - - - - - -
24/01:30am 14.3 SW 5 6 1020.1 - 0.0 - - - - - - -
24/01:00am 14.4 SW 5 7 1020.3 - 0.0 - - - - - - -
24/12:30am 14.4 SW 5 6 1020.3 - 0.0 - - - - - - -
24/12:00am 14.4 SW 5 6 1020.3 - 0.0 - - - - - - -
 
Date/Time
EST
Temp

°C
Wind Pressure Rain
since 9am
mm
Weather Cloud Vis
km
Sea
Height
m
Swell
Dir
 
Speed
knots
Gust
knots
hPa Trend Height
m
Period
s
Dir
23/11:30pm 14.3 WSW 4 5 1020.3 - 0.0 - - - - - - -
23/11:00pm 14.2 WSW 4 5 1020.4 - 0.0 - - - - - - -
23/10:30pm 14.5 SSE 4 5 1020.4 - 0.0 - - - - - - -
23/10:00pm 15.2 SE 3 5 1020.3 - 0.0 - - - - - - -
23/09:30pm 15.5 S 3 6 1020.4 - 0.0 - - - - - - -
23/09:00pm 16.4 E 5 7 1020.0 - 0.0 - - - - - - -
23/08:30pm 18.5 E 7 9 1019.9 - 0.0 - - - - - - -
23/08:00pm 18.4 E 6 8 1020.0 - 0.0 - - - - - - -
23/07:30pm 17.1 E 4 9 1019.7 - 0.0 - - - - - - -
23/07:00pm 16.6 SSE 3 4 1019.6 - 0.0 - - - - - - -
23/06:30pm 17.9 SE 3 5 1019.6 - 0.0 - - - - - - -
23/06:00pm 18.6 ESE 5 8 1019.0 - 0.0 - - - - - - -
23/05:30pm 18.8 E 9 11 1018.8 - 0.0 - - - - - - -
23/05:00pm 19.0 E 7 10 1018.8 - 0.0 - - - - - - -
23/04:30pm 19.4 E 7 11 1018.5 - 0.0 - - - - - - -
23/04:00pm 19.7 E 9 12 1018.4 - 0.0 - - - - - - -
23/03:30pm 20.0 E 9 13 1018.5 - 0.0 - - - - - - -

Other Formats:

Comma delimited format used in spreadsheet applications
http://www.bom.gov.au/fwo/IDQ60701/IDQ60701.94373.axf

JavaScript Object Notation format (JSON) in row-major order
http://www.bom.gov.au/fwo/IDQ60701/IDQ60701.94373.json